TimeCST,TemperatureF,Dew PointF,Humidity,Sea Level PressureIn,VisibilityMPH,Wind Direction,Wind SpeedMPH,Gust SpeedMPH,PrecipitationIn,Events,Conditions,WindDirDegrees,DateUTC
12:55 AM,57.0,56.3,97,29.89,10.0,North,15.0,-,N/A,,Overcast,10,2012-12-11 06:55:00
1:55 AM,54.3,53.1,95,29.89,10.0,North,15.0,-,N/A,,Mostly Cloudy,10,2012-12-11 07:55:00
2:04 AM,53.6,53.6,100,29.90,10.0,North,17.3,-,N/A,,Overcast,360,2012-12-11 08:04:00
3:55 AM,51.6,49.5,92,29.91,10.0,North,12.7,-,N/A,,Overcast,360,2012-12-11 09:55:00
5:55 AM,49.3,48.2,96,29.96,10.0,North,12.7,-,N/A,,Overcast,360,2012-12-11 11:55:00
6:55 AM,48.7,46.6,92,30.00,10.0,NNE,13.8,-,N/A,,Overcast,20,2012-12-11 12:55:00
7:37 AM,48.2,46.4,93,30.01,10.0,North,11.5,-,N/A,,Overcast,10,2012-12-11 13:37:00
8:55 AM,50.0,46.4,87,30.04,10.0,NNE,10.4,-,N/A,,Mostly Cloudy,20,2012-12-11 14:55:00
9:55 AM,50.0,44.6,82,30.06,10.0,North,12.7,-,N/A,,Mostly Cloudy,10,2012-12-11 15:55:00
10:55 AM,50.0,44.6,82,30.06,10.0,NNE,10.4,-,N/A,,Overcast,30,2012-12-11 16:55:00
11:55 AM,51.8,46.4,82,30.01,10.0,North,11.5,-,N/A,,Mostly Cloudy,10,2012-12-11 17:55:00
12:55 PM,51.8,46.4,82,30.03,10.0,North,9.2,-,N/A,,Overcast,360,2012-12-11 18:55:00
1:41 PM,50.0,44.6,82,30.00,10.0,North,11.5,-,N/A,,Overcast,360,2012-12-11 19:41:00
1:55 PM,50.2,45.0,82,30.01,10.0,North,11.5,-,N/A,,Overcast,10,2012-12-11 19:55:00
2:25 PM,50.0,44.6,82,30.01,6.0,North,10.4,-,N/A,Rain,Light Rain,10,2012-12-11 20:25:00
2:34 PM,50.0,44.6,82,30.02,7.0,North,11.5,-,N/A,,Overcast,360,2012-12-11 20:34:00
2:46 PM,50.0,44.6,82,30.02,10.0,North,12.7,-,N/A,Rain,Light Rain,360,2012-12-11 20:46:00
2:55 PM,49.5,45.1,85,30.03,10.0,North,13.8,-,0.00,Rain,Light Rain,10,2012-12-11 20:55:00
2:58 PM,50.0,44.6,82,30.02,10.0,NNE,11.5,-,N/A,,Overcast,20,2012-12-11 20:58:00
3:55 PM,49.5,44.6,83,30.04,10.0,North,10.4,-,0.00,,Overcast,10,2012-12-11 21:55:00
4:20 PM,48.2,44.6,87,30.05,10.0,North,9.2,-,N/A,,Overcast,10,2012-12-11 22:20:00
4:47 PM,48.2,44.6,87,30.04,10.0,North,11.5,-,N/A,,Overcast,10,2012-12-11 22:47:00
4:55 PM,48.4,43.7,84,30.04,10.0,NNE,12.7,-,N/A,,Overcast,20,2012-12-11 22:55:00
5:55 PM,48.0,42.4,81,30.06,10.0,North,11.5,-,N/A,,Overcast,10,2012-12-11 23:55:00
6:55 PM,47.3,42.1,82,30.11,10.0,North,10.4,-,N/A,,Mostly Cloudy,360,2012-12-12 00:55:00
7:49 PM,46.4,41.0,81,30.14,10.0,North,12.7,-,N/A,Rain,Light Rain,10,2012-12-12 01:49:00
7:55 PM,46.2,41.5,84,30.14,10.0,North,11.5,-,0.00,Rain,Light Rain,360,2012-12-12 01:55:00
8:55 PM,44.4,43.2,95,30.13,10.0,NNE,9.2,-,0.01,Rain,Light Rain,20,2012-12-12 02:55:00
9:55 PM,43.9,43.3,98,30.14,10.0,NNE,8.1,-,0.04,Rain,Light Rain,30,2012-12-12 03:55:00
10:55 PM,43.5,43.5,100,30.13,8.0,NNE,10.4,-,0.06,Rain,Light Rain,20,2012-12-12 04:55:00
11:45 PM,42.8,42.8,100,30.13,10.0,NE,5.8,-,N/A,,Mostly Cloudy,50,2012-12-12 05:45:00
11:51 PM,42.8,42.8,100,30.12,10.0,NNE,8.1,-,N/A,Rain,Light Rain,20,2012-12-12 05:51:00
11:55 PM,43.5,43.5,100,30.12,10.0,North,6.9,-,0.02,Rain,Light Rain,10,2012-12-12 05:55:00